| time (UTC) | temp F | wind direction | speed MPH | gust MPH | rain 1hr in | rain 24hr in | rain mn in | humidity % | barometer mb |
| 20260510141549 | 56 | 70 | 4.0 | 11.0 | 0.00 | 0.00 | 0.00 | 74 | 1015.5 |
| 20260510140046 | 56 | 46 | 3.0 | 16.0 | 0.00 | 0.00 | 0.00 | 73 | 1015.5 |
| 20260510134554 | 57 | 64 | 3.0 | 16.0 | 0.00 | 0.00 | 0.00 | 73 | 1015.6 |
| 20260510133050 | 58 | 88 | 2.0 | 17.0 | 0.00 | 0.00 | 0.00 | 75 | 1015.6 |
| 20260510131551 | 58 | 56 | 3.0 | 10.0 | 0.00 | 0.00 | 0.00 | 73 | 1015.6 |
| 20260510130047 | 58 | 63 | 6.0 | 17.0 | 0.00 | 0.00 | 0.00 | 72 | 1015.5 |
| 20260510124552 | 58 | 18 | 5.0 | 18.0 | 0.00 | 0.00 | 0.00 | 74 | 1015.8 |
| 20260510123045 | 58 | 53 | 4.0 | 14.0 | 0.00 | 0.00 | 0.00 | 71 | 1015.8 |
| 20260510121555 | 58 | 83 | 3.0 | 17.0 | 0.00 | 0.00 | 0.00 | 73 | 1015.9 |
| 20260510120104 | 58 | 86 | 4.0 | 12.0 | 0.00 | 0.00 | 0.00 | 73 | 1016.0 |
| 20260510114606 | 58 | 57 | 4.0 | 10.0 | 0.00 | 0.00 | 0.00 | 73 | 1016.1 |
| 20260510113050 | 56 | 57 | 5.0 | 13.0 | 0.00 | 0.00 | 0.00 | 77 | 1016.3 |
| 20260510111546 | 55 | 345 | 5.0 | 15.0 | 0.00 | 0.00 | 0.00 | 76 | 1016.5 |
| 20260510110045 | 57 | 119 | 4.0 | 16.0 | 0.00 | 0.00 | 0.00 | 74 | 1016.4 |
| 20260510104606 | 56 | 62 | 5.0 | 12.0 | 0.00 | 0.00 | 0.00 | 75 | 1016.6 |
| 20260510103054 | 55 | 98 | 6.0 | 15.0 | 0.00 | 0.00 | 0.00 | 75 | 1016.5 |
| 20260510101547 | 55 | 4 | 4.0 | 12.0 | 0.00 | 0.00 | 0.00 | 77 | 1016.7 |
| 20260510100055 | 55 | 116 | 5.0 | 18.0 | 0.00 | 0.00 | 0.00 | 77 | 1016.8 |
| 20260510094549 | 55 | 16 | 2.0 | 12.0 | 0.00 | 0.00 | 0.00 | 77 | 1016.8 |
| 20260510093051 | 54 | 39 | 4.0 | 14.0 | 0.00 | 0.00 | 0.00 | 78 | 1016.8 |
| 20260510091549 | 53 | 24 | 5.0 | 15.0 | 0.00 | 0.00 | 0.00 | 79 | 1017.0 |
| 20260510090056 | 53 | 44 | 5.0 | 15.0 | 0.00 | 0.00 | 0.00 | 78 | 1017.0 |
| 20260510084554 | 52 | 81 | 4.0 | 18.0 | 0.00 | 0.00 | 0.00 | 81 | 1017.2 |
| 20260510083051 | 52 | 329 | 4.0 | 15.0 | 0.00 | 0.00 | 0.00 | 80 | 1017.3 |
| 20260510081549 | 51 | 76 | 5.0 | 12.0 | 0.00 | 0.00 | 0.00 | 82 | 1017.3 |
| 20260510080045 | 51 | 11 | 2.0 | 14.0 | 0.00 | 0.00 | 0.00 | 83 | 1017.2 |
| 20260510074602 | 50 | 93 | 3.0 | 11.0 | 0.00 | 0.00 | 0.00 | 84 | 1017.0 |
| 20260510073050 | 49 | 78 | 2.0 | 19.0 | 0.00 | 0.00 | 0.00 | 86 | 1017.0 |
| 20260510071556 | 49 | 110 | 2.0 | 10.0 | 0.00 | 0.00 | 0.00 | 87 | 1016.8 |
| 20260510070051 | 48 | 56 | 2.0 | 8.0 | 0.00 | 0.00 | 0.00 | 88 | 1016.9 |
| 20260510064603 | 47 | 75 | 4.0 | 9.0 | 0.00 | 0.00 | 0.00 | 89 | 1016.8 |
| 20260510063045 | 47 | 32 | 3.0 | 12.0 | 0.00 | 0.00 | 0.00 | 89 | 1016.7 |
| 20260510061544 | 46 | 94 | 3.0 | 13.0 | 0.00 | 0.00 | 0.00 | 90 | 1016.6 |
| 20260510060052 | 46 | 103 | 3.0 | 8.0 | 0.00 | 0.00 | 0.00 | 91 | 1016.6 |
| 20260510054547 | 46 | 56 | 1.0 | 8.0 | 0.00 | 0.00 | 0.00 | 91 | 1016.7 |
| 20260510053047 | 45 | 38 | 3.0 | 13.0 | 0.00 | 0.00 | 0.00 | 91 | 1016.8 |
| 20260510051554 | 45 | 78 | 1.0 | 8.0 | 0.00 | 0.00 | 0.00 | 91 | 1016.9 |
| 20260510050047 | 45 | 90 | 1.0 | 8.0 | 0.00 | 0.00 | 0.00 | 91 | 1016.8 |
| 20260510044550 | 45 | 62 | 2.0 | 6.0 | 0.00 | 0.00 | 0.00 | 90 | 1016.8 |
| 20260510043059 | 45 | 90 | 2.0 | 6.0 | 0.00 | 0.00 | 0.00 | 88 | 1016.7 |
| 20260510041608 | 46 | 59 | 2.0 | 10.0 | 0.00 | 0.00 | 0.00 | 86 | 1016.7 |
| 20260510040049 | 46 | 4 | 3.0 | 11.0 | 0.00 | 0.00 | 0.00 | 84 | 1016.8 |
| 20260510034550 | 47 | 347 | 3.0 | 8.0 | 0.00 | 0.00 | 0.00 | 82 | 1016.8 |
| 20260510033055 | 47 | 83 | 0.0 | 8.0 | 0.00 | 0.00 | 0.00 | 80 | 1017.0 |
| 20260510031544 | 48 | 66 | 2.0 | 9.0 | 0.00 | 0.00 | 0.00 | 79 | 1017.1 |
| 20260510030052 | 48 | 47 | 1.0 | 8.0 | 0.00 | 0.00 | 0.00 | 78 | 1016.8 |
| 20260510024556 | 49 | 356 | 2.0 | 10.0 | 0.00 | 0.00 | 0.00 | 77 | 1017.0 |
| 20260510023049 | 49 | 43 | 1.0 | 12.0 | 0.00 | 0.00 | 0.00 | 76 | 1016.9 |
| 20260510021555 | 50 | 24 | 2.0 | 6.0 | 0.00 | 0.00 | 0.00 | 76 | 1016.8 |
| 20260510020051 | 50 | 342 | 2.0 | 9.0 | 0.00 | 0.00 | 0.00 | 77 | 1016.9 |
| 20260510014554 | 51 | 28 | 2.0 | 9.0 | 0.00 | 0.00 | 0.00 | 80 | 1017.0 |
| 20260510013102 | 51 | 8 | 2.0 | 7.0 | 0.00 | 0.00 | 0.00 | 81 | 1016.8 |
| 20260510011545 | 52 | 356 | 2.0 | 10.0 | 0.00 | 0.00 | 0.00 | 80 | 1016.9 |
| 20260510010059 | 53 | 101 | 1.0 | 8.0 | 0.00 | 0.00 | 0.00 | 79 | 1017.0 |
| 20260510004556 | 53 | 0 | 2.0 | 6.0 | 0.00 | 0.00 | 0.00 | 78 | 1016.8 |
| 20260510003046 | 53 | 98 | 1.0 | 8.0 | 0.00 | 0.00 | 0.00 | 78 | 1016.8 |
| 20260510001551 | 54 | 93 | 0.0 | 7.0 | 0.00 | 0.00 | 0.00 | 79 | 1017.0 |
| 20260510000045 | 54 | 93 | 2.0 | 8.0 | 0.00 | 0.00 | 0.00 | 80 | 1017.0 |
| 20260509234603 | 54 | 14 | 1.0 | 5.0 | 0.00 | 0.00 | 0.00 | 80 | 1017.0 |
| 20260509233047 | 54 | 332 | 1.0 | 5.0 | 0.00 | 0.00 | 0.00 | 84 | 1016.9 |
| 20260509231545 | 54 | 62 | 1.0 | 7.0 | 0.00 | 0.00 | 0.00 | 86 | 1016.9 |
| 20260509230050 | 54 | 0 | 2.0 | 7.0 | 0.00 | 0.00 | 0.00 | 86 | 1016.7 |
| 20260509224548 | 54 | 45 | 2.0 | 10.0 | 0.00 | 0.00 | 0.00 | 87 | 1016.6 |
| 20260509223050 | 54 | 141 | 1.0 | 10.0 | 0.00 | 0.00 | 0.00 | 87 | 1016.6 |
| 20260509221605 | 55 | 8 | 1.0 | 8.0 | 0.00 | 0.00 | 0.00 | 87 | 1016.7 |
| 20260509220059 | 55 | 46 | 3.0 | 9.0 | 0.00 | 0.00 | 0.00 | 86 | 1016.8 |
| 20260509214549 | 55 | 55 | 2.0 | 11.0 | 0.00 | 0.00 | 0.00 | 84 | 1016.8 |
| 20260509213052 | 56 | 8 | 2.0 | 8.0 | 0.00 | 0.00 | 0.00 | 82 | 1016.7 |
| 20260509211551 | 56 | 72 | 2.0 | 8.0 | 0.00 | 0.00 | 0.00 | 78 | 1016.7 |
| 20260509210059 | 57 | 335 | 1.0 | 8.0 | 0.00 | 0.00 | 0.00 | 75 | 1016.6 |
| 20260509204555 | 57 | 124 | 0.0 | 4.0 | 0.00 | 0.00 | 0.00 | 75 | 1016.3 |
| 20260509203050 | 57 | 328 | 0.0 | 3.0 | 0.00 | 0.00 | 0.00 | 75 | 1016.2 |
| 20260509201549 | 58 | 0 | 1.0 | 6.0 | 0.00 | 0.00 | 0.00 | 74 | 1016.2 |
| 20260509200045 | 59 | 81 | 1.0 | 5.0 | 0.00 | 0.00 | 0.00 | 73 | 1016.1 |
| 20260509194544 | 61 | 23 | 1.0 | 4.0 | 0.00 | 0.00 | 0.00 | 69 | 1016.1 |
| 20260509193049 | 61 | 113 | 1.0 | 8.0 | 0.00 | 0.00 | 0.00 | 68 | 1015.9 |
| 20260509191608 | 62 | 82 | 0.0 | 3.0 | 0.00 | 0.00 | 0.00 | 67 | 1015.9 |
| 20260509190054 | 63 | 117 | 1.0 | 6.0 | 0.00 | 0.00 | 0.00 | 66 | 1015.8 |
| 20260509184545 | 64 | 16 | 1.0 | 7.0 | 0.00 | 0.00 | 0.00 | 64 | 1015.7 |
| 20260509183047 | 65 | 0 | 1.0 | 9.0 | 0.00 | 0.00 | 0.00 | 64 | 1015.7 |
| 20260509181546 | 66 | 55 | 2.0 | 7.0 | 0.00 | 0.00 | 0.00 | 61 | 1015.7 |
| 20260509180044 | 67 | 42 | 1.0 | 8.0 | 0.00 | 0.00 | 0.00 | 60 | 1015.7 |
| 20260509174546 | 66 | 0 | 2.0 | 9.0 | 0.00 | 0.00 | 0.00 | 63 | 1015.6 |
| 20260509173056 | 67 | 356 | 2.0 | 6.0 | 0.00 | 0.00 | 0.00 | 62 | 1015.5 |
| 20260509171601 | 65 | 0 | 1.0 | 4.0 | 0.00 | 0.00 | 0.00 | 65 | 1015.6 |
| 20260509170048 | 65 | 83 | 2.0 | 7.0 | 0.00 | 0.00 | 0.00 | 62 | 1015.7 |
| 20260509164549 | 66 | 46 | 1.0 | 3.0 | 0.00 | 0.00 | 0.00 | 64 | 1015.7 |
| 20260509163058 | 65 | 41 | 0.0 | 2.0 | 0.00 | 0.00 | 0.00 | 64 | 1015.7 |
| 20260509161549 | 66 | 0 | 1.0 | 2.0 | 0.00 | 0.00 | 0.00 | 66 | 1015.8 |
| 20260509160054 | 64 | 94 | 3.0 | 6.0 | 0.00 | 0.00 | 0.00 | 67 | 1015.9 |
| 20260509154550 | 64 | 297 | 1.0 | 3.0 | 0.00 | 0.00 | 0.00 | 67 | 1015.8 |
| 20260509153052 | 65 | 0 | 1.0 | 3.0 | 0.00 | 0.00 | 0.00 | 67 | 1016.0 |
| 20260509151558 | 65 | 107 | 0.0 | 5.0 | 0.00 | 0.00 | 0.00 | 64 | 1015.9 |
| 20260509150047 | 65 | 355 | 0.0 | 10.0 | 0.00 | 0.00 | 0.00 | 64 | 1016.0 |
| 20260509144551 | 65 | 152 | 2.0 | 9.0 | 0.00 | 0.00 | 0.00 | 66 | 1016.1 |
| 20260509143050 | 65 | 60 | 3.0 | 9.0 | 0.00 | 0.00 | 0.00 | 70 | 1016.2 |